Location: Cabadeur
(42.9563°N, 0.2289°E)
Time: 05:22:02
(UTC+00:00)

Daily predictions for brighter satellites

Satellite Brightness Start Highest point End
(mag) Time Altitude Azimuth Time Altitude Azimuth Time Altitude Azimuth
Thor Agena Rocket 3.5 00:00:08 10° NNE 00:04:53 71° ENE 00:04:53 71° ENE
Cosmos 1707 Rocket 4.1 00:01:49 10° N 00:05:18 56° N 00:05:18 56° N
Okean 1 4.4 00:02:33 10° N 00:05:27 43° NNE 00:05:27 43° NNE
Cosmos 494 Rocket 4.1 00:13:18 64° ENE 00:13:18 64° ENE 00:17:56 10° NNE
Cosmos 2285 Rocket 3.8 00:09:05 10° NNW 00:15:25 85° WSW 00:16:07 72° S
Cosmos 2333 Rocket 2.0 00:10:16 10° NNW 00:15:57 84° WSW 00:16:01 83° SW
Meteor 1-25 Rocket 4.3 00:18:08 64° W 00:18:30 65° WNW 00:24:05 10° N
ATLAS 5 CENTAUR R/B 3.5 00:18:50 10° NNW 00:24:00 39° NE 00:28:59 15° ESE
Cosmos 2360 Rocket 3.2 00:20:49 10° NW 00:25:09 32° W 00:25:09 32° W
Cosmos 1452 Rocket 3.7 00:22:15 10° NNW 00:26:57 59° W 00:26:57 59° W
Cosmos 1666 4.2 00:29:45 34° NE 00:29:45 34° NE 00:32:14 10° NNE
PSLV R/B 3.9 00:23:52 10° N 00:28:18 72° NNW 00:28:18 72° NNW
Meteor 1-14 Rocket 4.1 00:30:32 72° ESE 00:30:44 73° E 00:36:18 10° NNE
Meteor 1-19 Rocket 4.1 00:25:57 10° NNW 00:31:39 73° W 00:31:46 72° WSW
Cosmos 2322 3.7 00:26:42 10° NNW 00:32:15 65° WSW 00:32:15 65° WSW
APEX 4.3 00:40:59 60° ESE 00:41:00 60° ESE 00:47:04 10° NNE
Resurs 1-4 Rocket 3.5 00:39:04 10° NE 00:43:29 26° E 00:44:08 25° ESE
Cosmos 2297 Rocket 2.9 00:46:29 40° ESE 00:46:43 41° ESE 00:52:00 10° NE
NOSS 3-1 (C) 4.1 00:44:02 10° NW 00:51:41 66° WSW 00:54:01 49° S
Cosmos 2237 Rocket 2.9 00:46:46 10° NNW 00:52:16 49° ENE 00:54:34 31° ESE
Meteor 2-17 Rocket 4.3 00:54:55 67° S 00:55:47 86° E 01:01:53 10° N
Cosmos 2227 Rocket 3.0 00:56:52 36° ESE 00:57:20 37° ESE 01:02:30 10° NE
Cosmos 1709 Rocket 4.1 00:58:20 56° SSE 00:59:36 70° E 01:05:55 10° NNE
Cosmos 1470 Rocket 4.0 01:00:37 54° NW 01:00:37 54° NW 01:04:17 10° N
Cosmos 1110 Rocket 4.1 00:55:41 10° NNW 01:00:40 60° W 01:00:40 60° W
USA 229 DEB 3.8 00:55:03 10° NW 01:02:28 83° WSW 01:05:35 41° SSE
USA 229 3.8 00:55:09 10° NW 01:02:34 83° WSW 01:05:44 40° SSE
Meteor 2-4 Rocket 3.7 00:58:44 10° NNW 01:04:39 69° W 01:05:16 64° SW
EO 1 Del DPAF 4.3 01:01:07 10° N 01:03:46 40° NNW 01:03:46 40° NNW
Cosmos 1933 Rocket 3.7 01:07:30 72° NNW 01:07:30 72° NNW 01:11:36 10° N
Cosmos 1745 Rocket 4.1 01:06:16 54° WSW 01:07:19 61° W 01:13:30 10° N
NOSS 0 Rocket 3.8 01:04:00 10° NNW 01:10:16 82° WSW 01:11:33 59° S
YAOGAN 11 4.1 01:10:25 84° N 01:10:25 84° N 01:14:52 10° NNW
MOZ.5/SAFIR/RUBIN 5/SL-8 3.8 01:11:26 74° ESE 01:11:42 77° ENE 01:16:26 10° N
Lacrosse 5 2.8 01:12:35 34° ESE 01:12:35 34° ESE 01:16:39 10° ENE
Cosmos 1331 Rocket 4.3 01:07:04 10° NNW 01:11:47 52° W 01:11:47 52° W
COSMOS 2428 3.2 01:07:42 10° NW 01:12:40 42° W 01:12:40 42° W
ADEOS Rocket 4.0 01:11:00 18° ESE 01:14:31 36° ENE 01:19:29 10° N
SL-16 R/B 4.0 01:10:06 10° N 01:14:58 28° NE 01:19:47 10° ESE
SL-16 R/B 3.0 01:13:31 28° SE 01:16:37 55° ENE 01:22:37 10° N
COSMOS 2455 4.0 01:14:39 26° W 01:17:02 36° NW 01:22:33 10° NNE
Cosmos 1544 4.1 01:18:15 43° NE 01:18:15 43° NE 01:21:02 10° NNE
CZ-2D R/B 2.6 01:12:28 10° NNE 01:17:42 51° E 01:18:42 45° SE
Helios 1A 3.1 01:18:25 73° NNW 01:18:25 73° NNW 01:22:17 10° NNW
Okean 1-7 3.1 01:14:14 10° N 01:18:05 72° N 01:18:05 72° N
Meteor 1-5 Rocket 4.4 01:18:51 53° WSW 01:19:36 57° WNW 01:25:17 10° N
Cosmos 909 Rocket 4.3 01:18:54 48° SSE 01:20:26 60° ESE 01:27:36 10° NE
Okean 3 3.9 01:18:24 10° N 01:22:38 53° E 01:22:53 52° E
NOSS 3-1 (A) 4.1 01:15:13 10° NW 01:22:52 67° WSW 01:26:38 37° S
Cosmos 2219 Rocket 3.4 01:18:46 10° NW 01:22:36 27° W 01:22:36 27° W
ARGOS Delta rocket 3.8 01:20:57 10° N 01:25:41 62° WNW 01:25:47 61° W
ADEOS II 3.5 01:21:45 10° NE 01:26:18 29° E 01:28:02 24° SE
Cosmos 1340 Rocket 3.4 01:27:12 48° NW 01:27:12 48° NW 01:30:22 10° N
CZ-4 R/B 4.0 01:25:38 10° N 01:30:32 61° WNW 01:31:02 57° WSW
Cosmos 1743 3.3 01:33:42 49° E 01:33:42 49° E 01:37:13 10° NNE
Cosmos 1269 Rocket 4.1 01:34:36 56° WSW 01:35:23 63° WNW 01:40:38 10° NNE
ASTEX 1 3.3 01:38:33 66° WSW 01:38:53 68° W 01:43:47 10° N
AQUA 4.3 01:36:19 10° NNE 01:40:58 52° E 01:41:55 44° SE
Cosmos 2219 3.1 01:42:03 55° SSW 01:43:23 85° WNW 01:49:11 10° NNE
Helios 1B rocket 2.8 01:41:10 10° NNE 01:45:13 54° E 01:45:31 52° ESE
Cosmos 2074 Rocket 4.3 01:43:18 35° SSE 01:45:52 61° E 01:52:00 10° NNE
Cosmos 1703 Rocket 4.2 01:43:14 10° NNW 01:46:53 41° WNW 01:46:53 41° WNW
Cosmos 1066 Rocket 4.2 01:42:10 10° NNW 01:48:01 74° W 01:49:38 49° SSW
Meteor 1-11 Rocket 3.9 01:54:11 46° WSW 01:55:26 57° WNW 02:00:53 10° N
Cosmos 2084 Rocket 3.6 01:51:20 10° NNW 01:55:34 72° NE 01:57:52 27° SE
Cosmos 2333 Rocket 4.4 01:57:46 10° W 01:58:00 10° W 01:58:00 10° W
Cosmos 2181 Rocket 4.0 01:53:13 10° NNW 01:59:32 66° W 02:01:43 41° SSW
Cosmos 1992 Rocket 3.9 01:57:04 10° NNW 02:02:20 89° ENE 02:04:37 35° SSE
Cosmos 2082 3.8 02:02:39 41° S 02:04:38 67° ESE 02:10:20 10° NNE
Cosmos 1733 Rocket 3.4 02:05:38 42° SSE 02:06:53 61° E 02:11:17 10° NNE
ATLAS 5 CENTAUR R/B 2.7 02:03:16 10° NW 02:08:49 45° WSW 02:10:23 38° SSW
Cosmos 1842 3.9 02:07:48 10° N 02:11:34 50° E 02:13:03 31° SE
Cosmos 1980 4.2 02:06:28 10° NW 02:11:39 37° WSW 02:12:06 37° WSW
CZ-4C R/B 4.2 02:05:48 10° NNW 02:12:32 42° NE 02:20:19 10° ESE
Cosmos 1536 4.0 02:15:43 28° WNW 02:15:45 28° WNW 02:19:15 10° NNW
IDEFIX/ARIANE 42P 3.3 02:14:03 10° NNE 02:19:05 48° E 02:22:01 23° SSE
Resurs 1-4 Rocket 2.8 02:18:26 10° N 02:23:25 42° WNW 02:25:13 31° WSW
CBERS-1 4.4 02:21:55 10° NNE 02:27:00 58° E 02:29:52 25° S
Cosmos 2251 Rocket 3.5 02:27:52 38° SSW 02:29:57 76° WNW 02:35:16 10° NNE
Cosmos 2297 Rocket 3.3 02:28:17 22° W 02:30:51 32° NW 02:35:54 10° N
Meteor 1-29 2.7 02:29:27 10° N 02:32:46 81° WNW 02:33:11 65° SW
Cosmos 2237 Rocket 3.2 02:31:27 10° NW 02:35:59 25° WSW 02:36:20 25° WSW
NPP 4.3 02:31:28 10° N 02:36:30 41° WNW 02:38:43 28° WSW
Cosmos 1238 Rocket 2.2 02:40:33 50° SSE 02:41:12 72° E 02:44:27 10° NNE
Okean 2 3.7 02:37:10 10° N 02:41:20 68° E 02:44:23 18° SSE
Cosmos 2227 Rocket 3.2 02:38:41 23° WSW 02:41:23 34° NW 02:46:32 10° N
Nadezhda 3 Rocket 4.0 02:35:29 10° N 02:41:54 84° W 02:47:13 15° S
Cosmos 2221 Rocket 4.0 02:41:40 10° NNW 02:46:02 47° W 02:47:39 32° SW
BREEZE-M DEB (TANK) 4.1 02:38:45 21° SW 02:46:29 75° SSE 02:50:13 10° ENE
Cosmos 2327 Rocket 4.5 02:46:03 25° SSW 02:49:52 71° W 02:56:02 10° N
CZ-4C R/B 3.8 02:46:34 10° SSE 02:50:29 64° ENE 02:54:42 10° N
Meteor 2-9 Rocket 4.2 02:51:22 27° SSW 02:54:12 62° WNW 02:59:30 10° N
Lacrosse 5 2.6 02:51:46 20° W 02:54:56 46° NW 02:59:50 10° NE
CZ-2D R/B 3.6 02:53:15 10° NNW 02:57:24 23° WNW 03:00:01 17° W
Cosmos 1140 Rocket 3.6 02:54:33 21° S 02:58:02 76° ESE 03:03:17 10° NNE
SL-16 R/B 2.4 02:53:53 10° NW 02:59:18 47° WSW 03:04:02 13° S
ADEOS Rocket 3.6 02:57:57 24° SW 03:00:06 31° W 03:04:57 10° NW
SL-16 R/B 3.6 02:58:37 21° WSW 03:00:31 25° W 03:05:29 10° NW
ARIANE 5 R/B 3.0 02:59:37 10° NNE 03:04:43 59° ESE 03:09:42 11° S
ADEOS II 2.9 03:01:13 10° N 03:06:02 37° WNW 03:08:58 21° WSW
CZ-4B R/B 4.1 03:02:26 10° NNE 03:07:12 50° E 03:11:49 10° S
IRS-1C 4.2 03:03:31 10° NNE 03:08:53 80° ESE 03:13:33 14° S
Cosmos 1674 Rocket 3.9 03:04:43 10° NNW 03:08:58 46° W 03:11:40 20° SSW
ATLAS CENTAUR R/B 2.5 03:06:59 15° S 03:09:30 33° ESE 03:13:01 10° NE
NOSS 3-3 (A) 4.0 03:05:31 20° SSW 03:09:36 71° ESE 03:15:59 10° NE
Cosmos 2263 Rocket 2.3 03:05:29 19° SSW 03:09:41 81° ESE 03:15:24 10° NNE
NOSS 3-3 (C) 4.0 03:05:38 20° SSW 03:09:42 70° ESE 03:16:04 10° NE
Cosmos 2154 Rocket 4.5 03:09:01 20° SW 03:12:56 44° WNW 03:18:50 10° N
Meteor 1-28 Rocket 4.2 03:12:37 24° SW 03:13:39 28° W 03:16:55 10° NW
Cosmos 1461 3.1 03:10:48 23° SW 03:13:41 83° WNW 03:18:11 10° NNE
Cosmos 1975 3.7 03:13:47 22° WSW 03:15:38 33° WNW 03:19:22 10° N
IRS-1D 4.2 03:13:03 10° N 03:17:35 37° WNW 03:20:43 18° SW
Cosmos 1975 Rocket 3.5 03:22:04 10° N 03:26:27 63° E 03:30:46 10° SSE
In-Cosmos 22 4.2 03:21:19 10° NNW 03:27:05 70° W 03:32:46 10° S
KORONAS-FOTON 4.0 03:25:38 10° N 03:29:34 79° E 03:33:28 10° SSE
Cosmos 1378 Rocket 4.4 03:26:59 10° NNW 03:30:50 31° W 03:33:46 15° SW
Cosmos 676 Rocket 4.2 03:27:09 10° S 03:32:26 74° ESE 03:37:46 10° NNE
GEOS 3 Rocket 3.6 03:27:08 10° SSE 03:32:29 75° SW 03:37:50 10° NW
SL-8 R/B 3.7 03:30:01 16° WSW 03:33:50 84° SSE 03:38:40 10° ENE
Cosmos 1707 3.4 03:31:56 10° NNW 03:35:26 35° W 03:38:31 12° SSW
Cosmos 1908 Rocket 4.2 03:33:17 16° SW 03:36:24 39° WNW 03:40:29 10° N
Cosmos 44 3.4 03:31:56 10° NNW 03:37:13 87° ENE 03:42:09 10° SSE
Cosmos 1943 3.2 03:34:23 10° NNW 03:40:08 89° WSW 03:45:50 10° SSE
Cosmos 407 Rocket 4.1 03:37:29 14° SW 03:41:46 42° WNW 03:46:46 10° N
PAYLOAD A 4.3 03:36:26 10° NNE 03:41:54 76° ESE 03:47:14 10° S
Meteor 1-12 Rocket 4.3 03:37:10 10° S 03:42:48 89° W 03:48:33 10° N
Cosmos 1959 Rocket 4.5 03:40:24 10° SSW 03:46:29 74° W 03:52:41 10° N
USA 281 4.1 03:41:01 10° SE 03:47:23 56° ENE 03:53:48 10° NNW
BREEZE-M DEB (TANK) 2.4 03:44:26 10° WNW 03:47:29 80° NNE 03:50:45 10° ESE
Cosmos 1766 4.0 03:44:31 10° S 03:48:16 54° E 03:52:06 10° NNE
SL-8 Rocket 4.2 03:46:23 10° SSW 03:52:25 54° WNW 03:58:28 10° N
Cosmos 1733 3.2 03:49:55 10° S 03:53:46 86° E 03:57:37 10° N
Cosmos 2366 rocket 4.1 03:48:04 10° SSW 03:54:21 65° W 04:00:42 10° N
IDEFIX/ARIANE 42P 4.0 03:54:20 10° NNW 03:58:20 23° WNW 04:02:19 10° WSW
Cosmos 1763 Rocket 4.1 03:54:21 10° NNW 03:59:39 63° ENE 04:04:53 10° SSE
Cosmos 1484 Rocket 4.2 03:57:44 10° NNE 04:01:28 40° E 04:05:13 10° S
CZ-4C R/B 3.2 03:54:10 10° NW 04:01:30 58° WSW 04:09:48 10° SSE
Cosmos 2344 3.9 03:54:48 10° SW 04:02:08 56° NW 04:09:52 10° NNE
SL-24 R/B - RUBIN 2 3.9 03:57:15 10° NNW 04:02:17 79° NE 04:06:47 10° SE
USA 215 3.3 03:56:35 10° NE 04:03:09 84° NW 04:09:41 10° SW
Cosmos 1400 Rocket 2.8 04:00:35 10° SSW 04:04:24 66° W 04:08:18 10° N
Cosmos 1025 Rocket 3.0 04:00:54 10° N 04:05:13 87° W 04:09:33 10° S
Cosmos 1315 Rocket 4.2 04:06:30 10° SSE 04:10:22 41° E 04:14:13 10° NNE
